Jacksonville Craig, FL

5:54 AM EDT on September 24, 2017 (GMT -0400)
Craig Municipal

Weather History for KCRG - October, 2012

Change the Weather History Date:

Saturday, October 27, 2012

  Actual Average Record
Temperature  
Mean Temperature 70 °F -  
Max Temperature 73 °F 76 °F 87 °F (2010)
Min Temperature 68 °F 58 °F 48 °F (2001)
Cooling Degree Days 6    
Growing Degree Days 20 (Base 50)    
Moisture  
Dew Point 61 °F    
Average Humidity 70    
Maximum Humidity 78    
Minimum Humidity 64    
Precipitation  
Precipitation 0.00 in - - ()
Sea Level Pressure  
Sea Level Pressure 29.62 in    
Wind  
Wind Speed 15 mph (NNW)    
Max Wind Speed 22 mph    
Max Gust Speed 31 mph    
Visibility 10 miles    
Events      
Averages and records for this station are not official NWS values.
T = Trace of Precipitation, MM = Missing Value Source: NWS Daily Summary

Daily Weather History Graph

Daily Weather History Graph

Search for Another Location

Airport or City:

Trip Planner

Search our weather history database for the weather conditions in past years. The results will help you decide how hot, cold, wet, or windy it might be!

Date:

Astronomy

Oct. 27, 2012 Rise Set
Actual Time 7:36 AM EDT 6:42 PM EDT
Civil Twilight 7:12 AM EDT 7:06 PM EDT
Nautical Twilight 6:44 AM EDT 7:35 PM EDT
Astronomical Twilight 6:16 AM EDT 8:03 PM EDT
Moon 5:23 PM EDT (10/27) 5:36 AM EDT (10/27)
Length of Visible Light 11h 54m
Length of Day
11h 05m
Waxing Gibbous, 96% of the Moon is Illuminated
Oct 27
Waxing Gibbous
Oct 29
Full
Nov 6
Last Quarter
Nov 13
New
Nov 20
First Quarter

Hourly Weather History & Observations

Time (EDT) Temp. Dew Point Humidity Pressure Visibility Wind Dir Wind Speed Gust Speed Precip Events Conditions
12:53 AM 72.0 °F 62.1 °F 71% 29.68 in 10.0 mi North 13.8 mph 21.9 mph N/A   Mostly Cloudy
1:53 AM 71.1 °F 61.0 °F 70% 29.66 in 10.0 mi North 13.8 mph 21.9 mph N/A   Overcast
2:53 AM 70.0 °F 61.0 °F 73% 29.63 in 10.0 mi North 13.8 mph - N/A   Overcast
3:53 AM 69.1 °F 61.0 °F 75% 29.60 in 10.0 mi North 17.3 mph 23.0 mph N/A   Clear
4:49 AM 69.8 °F 60.8 °F 73% 29.59 in 10.0 mi NNW 15.0 mph 25.3 mph N/A   Mostly Cloudy
4:53 AM 69.1 °F 61.0 °F 75% 29.59 in 10.0 mi NNW 12.7 mph 25.3 mph N/A   Mostly Cloudy
5:53 AM 68.0 °F 61.0 °F 78% 29.58 in 10.0 mi North 12.7 mph 21.9 mph N/A   Mostly Cloudy
6:53 AM 68.0 °F 61.0 °F 78% 29.59 in 10.0 mi North 16.1 mph 24.2 mph N/A   Mostly Cloudy
7:53 AM 68.0 °F 61.0 °F 78% 29.62 in 10.0 mi NNW 13.8 mph 24.2 mph N/A   Overcast
8:53 AM 68.0 °F 61.0 °F 78% 29.63 in 10.0 mi NNW 19.6 mph 26.5 mph N/A   Overcast
9:53 AM 69.1 °F 61.0 °F 75% 29.63 in 10.0 mi NNW 19.6 mph 24.2 mph N/A   Overcast
10:53 AM 70.0 °F 61.0 °F 73% 29.65 in 10.0 mi NNW 18.4 mph 23.0 mph N/A   Overcast
11:53 AM 70.0 °F 61.0 °F 73% 29.64 in 10.0 mi NNW 21.9 mph 31.1 mph N/A   Overcast
12:33 PM 71.6 °F 60.8 °F 69% 29.63 in 10.0 mi NNW 17.3 mph 27.6 mph N/A   Scattered Clouds
12:53 PM 71.1 °F 60.1 °F 68% 29.63 in 10.0 mi NNW 17.3 mph 26.5 mph N/A   Scattered Clouds
1:01 PM 71.6 °F 60.8 °F 69% 29.63 in 10.0 mi NNW 17.3 mph 24.2 mph N/A   Overcast
1:53 PM 72.0 °F 60.1 °F 66% 29.61 in 10.0 mi NNW 16.1 mph 26.5 mph N/A   Mostly Cloudy
2:00 PM 71.6 °F 60.8 °F 69% 29.61 in 10.0 mi North 15.0 mph 26.5 mph N/A   Overcast
2:24 PM 73.4 °F 60.8 °F 65% 29.60 in 10.0 mi NNW 17.3 mph 21.9 mph N/A   Mostly Cloudy
2:40 PM 71.6 °F 60.8 °F 69% 29.60 in 10.0 mi NNW 15.0 mph 29.9 mph N/A   Mostly Cloudy
2:53 PM 73.0 °F 60.1 °F 64% 29.59 in 10.0 mi NNW 17.3 mph 26.5 mph N/A   Mostly Cloudy
3:53 PM 73.0 °F 60.1 °F 64% 29.58 in 10.0 mi NNW 19.6 mph 25.3 mph N/A   Scattered Clouds
4:53 PM 73.0 °F 61.0 °F 66% 29.59 in 10.0 mi NNW 12.7 mph 23.0 mph N/A   Clear
5:53 PM 73.0 °F 61.0 °F 66% 29.59 in 10.0 mi NW 15.0 mph 21.9 mph N/A   Clear
6:53 PM 73.0 °F 60.1 °F 64% 29.62 in 10.0 mi NNW 12.7 mph - N/A   Mostly Cloudy
7:53 PM 72.0 °F 60.1 °F 66% 29.62 in 10.0 mi NW 11.5 mph - N/A   Clear
8:53 PM 71.1 °F 60.1 °F 68% 29.64 in 10.0 mi NW 12.7 mph - N/A   Partly Cloudy
9:53 PM 71.1 °F 59.0 °F 66% 29.65 in 10.0 mi NNW 13.8 mph - N/A   Clear
10:53 PM 70.0 °F 59.0 °F 68% 29.66 in 10.0 mi NW 10.4 mph - N/A   Clear